TimePDT,TemperatureF,Dew PointF,Humidity,Sea Level PressureIn,VisibilityMPH,Wind Direction,Wind SpeedMPH,Gust SpeedMPH,PrecipitationIn,Events,Conditions,WindDirDegrees,DateUTC
12:15 AM,55.4,33.8,44,30.10,10.0,NW,3.5,-,N/A,,Clear,310,2014-03-10 07:15:00
12:35 AM,53.6,32.0,44,30.10,10.0,Calm,Calm,-,N/A,,Clear,0,2014-03-10 07:35:00
12:55 AM,53.6,32.0,44,30.10,10.0,Calm,Calm,-,N/A,,Clear,0,2014-03-10 07:55:00
1:15 AM,51.8,32.0,47,30.10,10.0,Calm,Calm,-,N/A,,Clear,0,2014-03-10 08:15:00
1:35 AM,51.8,32.0,47,30.10,10.0,West,3.5,-,N/A,,Clear,270,2014-03-10 08:35:00
1:55 AM,51.8,33.8,50,30.10,10.0,Calm,Calm,-,N/A,,Clear,0,2014-03-10 08:55:00
2:15 AM,51.8,33.8,50,30.10,10.0,Calm,Calm,-,N/A,,Clear,0,2014-03-10 09:15:00
2:35 AM,48.2,33.8,58,30.09,10.0,WNW,3.5,-,N/A,,Clear,290,2014-03-10 09:35:00
2:55 AM,48.2,33.8,58,30.08,10.0,WNW,3.5,-,N/A,,Clear,290,2014-03-10 09:55:00
3:15 AM,48.2,33.8,58,30.08,10.0,Calm,Calm,-,N/A,,Clear,0,2014-03-10 10:15:00
3:35 AM,48.2,33.8,58,30.07,10.0,Calm,Calm,-,N/A,,Clear,0,2014-03-10 10:35:00
3:55 AM,46.4,33.8,62,30.07,10.0,Calm,Calm,-,N/A,,Clear,0,2014-03-10 10:55:00
4:15 AM,46.4,32.0,57,30.07,10.0,Calm,Calm,-,N/A,,Clear,0,2014-03-10 11:15:00
4:35 AM,46.4,33.8,62,30.07,10.0,Calm,Calm,-,N/A,,Clear,0,2014-03-10 11:35:00
4:55 AM,46.4,32.0,57,30.07,10.0,Calm,Calm,-,N/A,,Clear,0,2014-03-10 11:55:00
5:15 AM,46.4,33.8,62,30.07,10.0,Calm,Calm,-,N/A,,Clear,0,2014-03-10 12:15:00
5:35 AM,46.4,33.8,62,30.07,10.0,WNW,3.5,-,N/A,,Clear,300,2014-03-10 12:35:00
5:55 AM,46.4,33.8,62,30.07,10.0,Calm,Calm,-,N/A,,Clear,0,2014-03-10 12:55:00
6:15 AM,46.4,33.8,62,30.08,10.0,Calm,Calm,-,N/A,,Clear,0,2014-03-10 13:15:00
6:35 AM,44.6,33.8,66,30.08,10.0,Calm,Calm,-,N/A,,Clear,0,2014-03-10 13:35:00
6:55 AM,44.6,33.8,66,30.09,10.0,West,4.6,-,N/A,,Clear,280,2014-03-10 13:55:00
7:15 AM,44.6,33.8,66,30.09,10.0,Calm,Calm,-,N/A,,Clear,0,2014-03-10 14:15:00
7:35 AM,46.4,32.0,57,30.09,8.0,Calm,Calm,-,N/A,,Clear,0,2014-03-10 14:35:00
7:55 AM,46.4,33.8,62,30.10,10.0,Calm,Calm,-,N/A,,Clear,0,2014-03-10 14:55:00
8:15 AM,48.2,35.6,62,30.10,10.0,Calm,Calm,-,N/A,,Clear,0,2014-03-10 15:15:00
8:35 AM,51.8,33.8,50,30.11,10.0,Calm,Calm,-,N/A,,Clear,0,2014-03-10 15:35:00
8:55 AM,53.6,33.8,47,30.11,10.0,Calm,Calm,-,N/A,,Clear,0,2014-03-10 15:55:00
9:15 AM,57.2,33.8,41,30.11,10.0,Calm,Calm,-,N/A,,Clear,0,2014-03-10 16:15:00
9:35 AM,62.6,33.8,34,30.11,10.0,Calm,Calm,-,N/A,,Clear,0,2014-03-10 16:35:00
9:55 AM,64.4,33.8,32,30.11,10.0,Calm,Calm,-,N/A,,Clear,0,2014-03-10 16:55:00
10:15 AM,69.8,33.8,27,30.11,10.0,Calm,Calm,-,N/A,,Clear,0,2014-03-10 17:15:00
10:35 AM,71.6,32.0,23,30.11,10.0,Calm,Calm,-,N/A,,Clear,0,2014-03-10 17:35:00
10:47 AM,73.4,32.0,22,30.10,25.0,Calm,Calm,-,N/A,,Clear,0,2014-03-10 17:47:00
10:55 AM,75.2,30.2,19,30.11,8.0,Calm,Calm,-,N/A,,Clear,0,2014-03-10 17:55:00
11:15 AM,78.8,28.4,16,30.10,10.0,Calm,Calm,-,N/A,,Clear,0,2014-03-10 18:15:00
11:35 AM,80.6,30.2,16,30.10,10.0,Calm,Calm,-,N/A,,Clear,0,2014-03-10 18:35:00
11:55 AM,82.4,28.4,14,30.09,10.0,Calm,Calm,-,N/A,,Clear,0,2014-03-10 18:55:00
12:15 PM,82.4,28.4,14,30.08,10.0,WSW,5.8,-,N/A,,Clear,240,2014-03-10 19:15:00
12:35 PM,84.2,26.6,12,30.07,10.0,SW,8.1,-,N/A,,Clear,230,2014-03-10 19:35:00
12:55 PM,84.2,26.6,12,30.07,10.0,WSW,8.1,-,N/A,,Clear,240,2014-03-10 19:55:00
1:15 PM,82.4,26.6,13,30.06,10.0,SW,10.4,-,N/A,,Clear,220,2014-03-10 20:15:00
1:35 PM,82.4,24.8,12,30.05,10.0,SW,9.2,-,N/A,,Clear,230,2014-03-10 20:35:00
1:55 PM,82.4,24.8,12,30.04,10.0,SW,10.4,-,N/A,,Clear,220,2014-03-10 20:55:00
2:15 PM,82.4,26.6,13,30.04,10.0,WSW,9.2,-,N/A,,Clear,250,2014-03-10 21:15:00
2:35 PM,82.4,26.6,13,30.03,10.0,West,13.8,17.3,N/A,,Clear,280,2014-03-10 21:35:00
2:55 PM,82.4,26.6,13,30.03,10.0,West,10.4,-,N/A,,Clear,260,2014-03-10 21:55:00
3:15 PM,80.6,26.6,14,30.03,10.0,WSW,11.5,-,N/A,,Clear,250,2014-03-10 22:15:00
3:35 PM,80.6,32.0,17,30.03,10.0,WSW,10.4,18.4,N/A,,Clear,240,2014-03-10 22:35:00
3:55 PM,80.6,26.6,14,30.02,10.0,West,13.8,-,N/A,,Clear,280,2014-03-10 22:55:00
4:15 PM,80.6,30.2,16,30.02,10.0,West,8.1,-,N/A,,Clear,280,2014-03-10 23:15:00
4:35 PM,78.8,30.2,17,30.02,10.0,WSW,9.2,-,N/A,,Clear,240,2014-03-10 23:35:00
4:55 PM,78.8,30.2,17,30.01,10.0,West,11.5,-,N/A,,Clear,280,2014-03-10 23:55:00
5:15 PM,78.8,28.4,16,30.01,10.0,West,9.2,-,N/A,,Clear,260,2014-03-11 00:15:00
5:35 PM,77.0,30.2,18,30.01,10.0,West,6.9,-,N/A,,Clear,270,2014-03-11 00:35:00
5:55 PM,75.2,30.2,19,30.02,10.0,West,9.2,-,N/A,,Clear,270,2014-03-11 00:55:00
6:15 PM,73.4,30.2,20,30.02,10.0,WNW,5.8,-,N/A,,Clear,300,2014-03-11 01:15:00
6:35 PM,73.4,32.0,22,30.02,10.0,West,3.5,-,N/A,,Clear,270,2014-03-11 01:35:00
6:55 PM,71.6,35.6,27,30.02,10.0,West,4.6,-,N/A,,Clear,260,2014-03-11 01:55:00
7:15 PM,69.8,39.2,33,30.02,10.0,Calm,Calm,-,N/A,,Clear,0,2014-03-11 02:15:00
7:35 PM,68.0,41.0,37,30.03,10.0,WNW,4.6,-,N/A,,Clear,300,2014-03-11 02:35:00
7:55 PM,66.2,41.0,40,30.03,10.0,Calm,Calm,-,N/A,,Clear,0,2014-03-11 02:55:00
8:15 PM,64.4,37.4,37,30.04,10.0,WNW,5.8,-,N/A,,Clear,290,2014-03-11 03:15:00
8:35 PM,64.4,33.8,32,30.04,10.0,WSW,3.5,-,N/A,,Clear,240,2014-03-11 03:35:00
8:55 PM,62.6,37.4,39,30.04,10.0,WNW,5.8,-,N/A,,Clear,290,2014-03-11 03:55:00
9:15 PM,60.8,42.8,52,30.04,10.0,WNW,4.6,-,N/A,,Clear,290,2014-03-11 04:15:00
9:35 PM,59.0,42.8,55,30.04,10.0,West,3.5,-,N/A,,Clear,280,2014-03-11 04:35:00
9:55 PM,57.2,42.8,59,30.04,10.0,WNW,3.5,-,N/A,,Clear,290,2014-03-11 04:55:00
10:15 PM,57.2,42.8,59,30.04,10.0,Calm,Calm,-,N/A,,Clear,0,2014-03-11 05:15:00
10:35 PM,57.2,42.8,59,30.04,10.0,Calm,Calm,-,N/A,,Clear,0,2014-03-11 05:35:00
10:55 PM,55.4,42.8,63,30.04,10.0,Calm,Calm,-,N/A,,Clear,0,2014-03-11 05:55:00
11:15 PM,53.6,42.8,67,30.03,10.0,Calm,Calm,-,N/A,,Clear,0,2014-03-11 06:15:00
11:35 PM,53.6,42.8,67,30.03,10.0,Calm,Calm,-,N/A,,Clear,0,2014-03-11 06:35:00
11:55 PM,53.6,42.8,67,30.03,10.0,Calm,Calm,-,N/A,,Clear,0,2014-03-11 06:55:00